Weather reports worldwide

Advertisment
D15-FA-1, Netherlands (6201): temperature & dewpoint: 16.02.2020 08:00:00 - 22.02.2020 08:00:00 (CET)D15-FA-1, Netherlands (6201): wind speed & gusts: 16.02.2020 08:00:00 - 22.02.2020 08:00:00 (CET)D15-FA-1, Netherlands (6201): wind direction: 16.02.2020 08:00:00 - 22.02.2020 08:00:00 (CET)D15-FA-1, Netherlands (6201): reduced air pressure: 16.02.2020 08:00:00 - 22.02.2020 08:00:00 (CET)D15-FA-1, Netherlands (6201): visibility: 16.02.2020 08:00:00 - 22.02.2020 08:00:00 (CET)
Date & Time tt [°C] td [°C] ff [km/h] ff [kn] fx [km/h] fx [kn] dd ppp [hPa] vv [km]
22.02.2020 08:00:00 8,9 6,3 70 38 79 43 SW 1000,5 10
22.02.2020 07:00:00 8,9 5,8 70 38 76 41 SW 1001,5 10
22.02.2020 06:00:00 8,9 5,7 68 37 76 41 SW 1001,8 10
22.02.2020 05:00:00 8,6 5,6 63 34 101 54 SW 1001,7 10
22.02.2020 04:00:00 8,5 5,5 74 40 104 56 SW 1002,0 10
22.02.2020 03:00:00 8,6 5,5 74 40 97 53 SW 1004,1 10
22.02.2020 02:00:00 8,7 5,5 54 29 83 45 SW 1005,3 13
22.02.2020 01:00:00 8,5 5,3 50 27 79 43 SW 1006,5 14
22.02.2020 00:00:00 8,7 5,4 59 32 79 43 SW 1007,9 10
21.02.2020 23:00:00 8,8 5,4 57 31 79 43 SW 1009,1 10
21.02.2020 22:00:00 8,6 5,4 61 33 61 33 SW 1009,5 10
21.02.2020 21:00:00 8,7 5,4 57 31 61 33 SW 1009,4 10
21.02.2020 20:00:00 8,4 5,4 57 31 61 33 SW 1010,4 10
21.02.2020 19:00:00 8,1 5,2 55 30 61 33 SW 1011,1 10
21.02.2020 18:00:00 8,1 5,0 59 32 83 45 SW 1011,2 10
21.02.2020 17:00:00 7,9 4,9 57 31 61 33 SW 1011,8 10
21.02.2020 16:00:00 7,6 4,7 57 31 61 33 SW 1012,3 8
21.02.2020 15:00:00 7,0 4,4 61 33 65 35 SW 1012,5 4,0
21.02.2020 14:00:00 7,4 4,2 57 31 61 33 SW 1012,7 10
21.02.2020 13:00:00 7,2 3,8 57 31 72 39 SW 1013,1 9
21.02.2020 12:00:00 6,9 3,9 55 30 58 31 SW 1013,8 10
21.02.2020 11:00:00 6,8 3,7 50 27 54 29 SW 1014,5 10
21.02.2020 10:00:00 6,5 3,2 48 26 50 27 SW 1014,8 10
21.02.2020 09:00:00 7,1 3,1 50 27 65 35 WSW 1015,1 10
21.02.2020 08:00:00 6,6 3,0 55 30 61 33 WSW 1014,7 10
21.02.2020 07:00:00 6,5 2,8 59 32 61 33 W 1014,4 10
21.02.2020 06:00:00 6,6 2,8 54 29 58 31 W 1014,1 10
21.02.2020 05:00:00 6,6 2,9 55 30 76 41 W 1013,7 10
21.02.2020 04:00:00 6,6 2,5 52 28 72 39 W 1013,2 10
21.02.2020 03:00:00 6,7 1,8 70 38 79 43 W 1012,4 10
21.02.2020 02:00:00 6,7 1,7 74 40 76 41 W 1011,3 10
21.02.2020 01:00:00 6,6 1,6 70 38 79 43 W 1010,7 10
21.02.2020 00:00:00 6,4 1,1 74 40 79 43 W 1009,3 10
20.02.2020 23:00:00 6,2 0,8 68 37 83 45 W 1008,4 10
20.02.2020 22:00:00 6,3 0,1 74 40 79 43 W 1007,7 10
20.02.2020 21:00:00 6,7 0,2 78 42 83 45 W 1006,0 10
20.02.2020 20:00:00 6,7 0,7 67 36 76 41 WNW 1004,7 10
20.02.2020 19:00:00 6,5 1,9 68 37 79 43 W 1003,2 10
20.02.2020 18:00:00 6,5 3,1 50 27 54 29 W 1001,6 10
20.02.2020 17:00:00 5,8 2,4 61 33 65 35 NW 1000,3 -
20.02.2020 16:00:00 5,8 3,8 72 39 83 45 NW 998,7 8
20.02.2020 15:00:00 7,5 7,0 58 31 79 43 SSW 996,1 4,6
20.02.2020 14:00:00 8,2 6,3 63 34 76 41 SSW 997,4 10
20.02.2020 13:00:00 8,1 6,2 59 32 76 41 SSW 998,6 10
20.02.2020 12:00:00 7,9 6,1 61 33 76 41 SSW 1000,0 10
20.02.2020 11:00:00 8,0 6,0 67 36 79 43 SSW 1000,7 10
20.02.2020 10:00:00 8,0 5,8 63 34 79 43 SSW 1002,1 10
20.02.2020 09:00:00 7,9 6,0 65 35 72 39 SW 1002,7 10
20.02.2020 08:00:00 8,1 6,0 70 38 76 41 SW 1003,0 10
20.02.2020 07:00:00 8,2 6,0 65 35 72 39 SW 1003,7 10
20.02.2020 06:00:00 8,1 6,0 57 31 65 35 SW 1004,3 10
20.02.2020 05:00:00 7,9 6,2 57 31 68 37 SW 1004,7 10
20.02.2020 04:00:00 7,9 6,2 59 32 68 37 SW 1005,1 10
20.02.2020 03:00:00 8,0 6,2 50 27 68 37 SW 1005,9 10
20.02.2020 02:00:00 7,9 6,3 54 29 65 35 SW 1006,3 10
20.02.2020 01:00:00 7,6 6,6 50 27 65 35 SW 1007,2 14
20.02.2020 00:00:00 6,7 6,6 59 32 65 35 SW 1008,1 4,9
19.02.2020 23:00:00 6,9 6,0 57 31 61 33 SW 1008,9 7
19.02.2020 22:00:00 6,6 5,4 52 28 58 31 SSW 1010,0 10
19.02.2020 21:00:00 6,0 4,8 54 29 61 33 SW 1011,0 8
19.02.2020 20:00:00 6,0 4,0 50 27 58 31 SW 1012,1 10
19.02.2020 19:00:00 6,0 3,5 35 19 40 21 SW 1012,7 10
19.02.2020 18:00:00 6,5 2,5 35 19 36 19 WSW 1013,2 10
19.02.2020 17:00:00 6,4 2,1 35 19 43 23 WSW 1013,6 10
19.02.2020 16:00:00 6,5 2,1 42 23 43 23 W 1014,1 10
19.02.2020 15:00:00 6,4 2,3 42 23 54 29 W 1014,2 10
19.02.2020 14:00:00 6,4 2,0 41 22 54 29 W 1014,3 10
19.02.2020 13:00:00 6,5 1,8 52 28 58 31 W 1014,1 10
19.02.2020 12:00:00 6,5 1,9 57 31 58 31 W 1013,8 10
19.02.2020 11:00:00 6,5 2,2 54 29 61 33 W 1013,0 10
19.02.2020 10:00:00 6,4 2,1 55 30 61 33 W 1012,3 10
19.02.2020 09:00:00 6,6 2,0 61 33 65 35 WNW 1011,5 10
19.02.2020 08:00:00 6,6 1,6 63 34 68 37 W 1010,5 10
19.02.2020 07:00:00 6,6 1,7 54 29 68 37 WNW 1009,7 18
19.02.2020 06:00:00 6,2 1,6 67 36 68 37 W 1009,2 10
19.02.2020 05:00:00 6,3 1,7 68 37 68 37 W 1008,5 10
19.02.2020 04:00:00 6,3 1,3 65 35 72 39 W 1007,4 10
19.02.2020 03:00:00 6,2 1,4 54 29 72 39 W 1007,0 20
19.02.2020 02:00:00 6,2 1,5 63 34 68 37 W 1006,6 10
19.02.2020 01:00:00 6,4 1,0 65 35 68 37 W 1006,4 10
19.02.2020 00:00:00 6,5 1,6 61 33 68 37 W 1006,0 10
18.02.2020 23:00:00 6,8 2,9 57 31 65 35 - 1006,0 10
18.02.2020 22:00:00 6,8 3,6 50 27 61 33 W 1005,8 10
18.02.2020 21:00:00 6,2 3,6 48 26 58 31 W 1006,0 10
18.02.2020 20:00:00 6,9 4,4 48 26 58 31 WSW 1006,3 3,0
18.02.2020 19:00:00 7,9 4,6 50 27 54 29 SW 1006,4 10
18.02.2020 18:00:00 7,8 4,3 48 26 50 27 SW 1007,1 10
18.02.2020 17:00:00 7,7 4,1 48 26 54 29 SW 1008,0 10
18.02.2020 16:00:00 7,5 3,7 50 27 54 29 WSW 1008,8 10
18.02.2020 15:00:00 7,1 3,6 52 28 54 29 WSW 1009,7 10
18.02.2020 14:00:00 6,8 3,2 52 28 50 27 WSW 1010,6 10
18.02.2020 13:00:00 6,8 3,0 46 25 50 27 WSW 1010,9 10
18.02.2020 12:00:00 6,4 2,5 48 26 54 29 WSW 1011,3 10
18.02.2020 11:00:00 6,5 1,8 50 27 50 27 WSW 1011,2 10
18.02.2020 10:00:00 6,5 2,3 46 25 - - WSW 1011,2 10
18.02.2020 09:00:00 6,3 2,0 52 28 61 33 W 1011,1 10
18.02.2020 08:00:00 6,3 2,5 52 28 61 33 W 1010,5 10
18.02.2020 07:00:00 6,4 2,1 59 32 61 33 W 1010,0 10
18.02.2020 06:00:00 6,5 2,3 61 33 79 43 W 1009,7 10
18.02.2020 05:00:00 6,4 2,4 65 35 83 45 W 1009,1 10
18.02.2020 04:00:00 5,8 2,5 63 34 68 37 W 1008,4 10
18.02.2020 03:00:00 4,6 2,1 74 40 79 43 W 1008,2 10
18.02.2020 02:00:00 6,3 1,4 63 34 76 41 W 1007,7 10
18.02.2020 01:00:00 6,6 1,5 54 29 65 35 WSW 1007,4 10
18.02.2020 00:00:00 7,1 2,1 52 28 65 35 W 1006,8 10
17.02.2020 23:00:00 7,4 2,0 52 28 61 33 WSW 1006,1 10
17.02.2020 22:00:00 7,8 1,6 59 32 61 33 W 1005,5 10
17.02.2020 21:00:00 8,1 4,2 42 23 50 27 WSW 1005,2 10
17.02.2020 20:00:00 8,2 4,3 46 25 47 25 WSW 1004,6 10
17.02.2020 19:00:00 8,0 5,0 46 25 50 27 WSW 1003,8 10
17.02.2020 18:00:00 7,9 4,9 48 26 54 29 WSW 1002,8 10
17.02.2020 17:00:00 7,9 4,7 40 21 47 25 WSW 1002,0 19
17.02.2020 16:00:00 7,5 4,5 50 27 50 27 WSW 1001,5 10
17.02.2020 15:00:00 7,3 4,1 46 25 50 27 SW 1000,9 10
17.02.2020 14:00:00 7,2 3,5 54 29 58 31 SW 1000,5 10
17.02.2020 13:00:00 7,3 2,7 57 31 72 39 WSW 1000,2 10
17.02.2020 12:00:00 7,2 2,5 61 33 65 35 SW 999,6 10
17.02.2020 11:00:00 7,1 2,5 54 29 72 39 SW 998,7 18
17.02.2020 10:00:00 7,2 2,3 58 31 72 39 SW 997,5 17
17.02.2020 09:00:00 7,1 2,8 58 31 76 41 SW 996,6 15
17.02.2020 08:00:00 7,3 2,1 61 33 76 41 SW 996,3 14
17.02.2020 07:00:00 7,2 2,4 58 31 76 41 SW 995,6 13
17.02.2020 06:00:00 7,1 2,3 58 31 79 43 WSW 996,0 14
17.02.2020 05:00:00 7,3 1,8 61 33 79 43 WSW 995,2 12
17.02.2020 04:00:00 7,1 2,2 61 33 76 41 WSW 994,9 13
17.02.2020 03:00:00 7,1 1,8 61 33 76 41 WSW 994,0 14
17.02.2020 02:00:00 7,1 2,5 58 31 68 37 WSW 993,4 15
17.02.2020 01:00:00 7,5 3,0 54 29 72 39 WSW 992,3 15
17.02.2020 00:00:00 7,9 3,3 59 32 72 39 SW 991,1 10
16.02.2020 23:00:00 8,0 3,3 52 28 72 39 W 990,0 8
16.02.2020 22:00:00 7,9 3,7 59 32 61 33 SW 990,0 10
16.02.2020 21:00:00 7,8 3,7 57 31 61 33 SW 989,8 10
16.02.2020 20:00:00 7,6 2,6 67 36 68 37 WSW 988,8 10
16.02.2020 19:00:00 7,6 4,0 55 30 58 31 SW 987,9 10
16.02.2020 18:00:00 6,7 4,4 29 16 65 35 SW 987,8 7
16.02.2020 17:00:00 7,1 4,2 48 26 58 31 WSW 987,5 10
16.02.2020 16:00:00 7,4 3,9 50 27 61 33 WSW 987,7 10
16.02.2020 15:00:00 9,1 3,7 48 26 61 33 SW 987,2 10
16.02.2020 14:00:00 9,0 5,4 48 26 76 41 SW 987,1 10
16.02.2020 13:00:00 8,4 6,4 48 26 61 33 SW 987,7 10
16.02.2020 12:00:00 8,7 4,9 52 28 54 29 SW 988,1 10
16.02.2020 11:00:00 8,6 5,9 50 27 68 37 SW 986,5 10
16.02.2020 10:00:00 7,7 7,6 57 31 61 33 SW 985,2 5
16.02.2020 09:00:00 8,0 7,7 46 25 50 27 SW 986,1 3,7
16.02.2020 08:00:00 8,0 8,0 48 26 50 27 SW 985,4 2,9

tt = temperature
td = dewpoint
ff = wind speed
fx = gusts
dd = wind direction
ppp = reduced air pressure
vv = visibility

Next stations